sat.trackr.live / text

‹ back to catalog

NSS-12

NORAD 36032 · 2009-058A

PAYLOAD ACTIVE UNKNOWN

§ Identity

Operator
Country
SES
Launch date
2009-10-29
Launch site
FRGUI
Launch vehicle
Mass (kg)
RCS (m²)
7.94

Purposes: comms

External: N2YO · Heavens-Above · Gunter

§ Orbital elements

Epoch: 2026-09-20T01:47:45.547008Z

Period
1,436.08 min
Inclination
0.0286°
Eccentricity
0.0003207
Mean motion
1.00272703 rev/d
Perigee alt
35,772.8 km
Apogee alt
35,799.9 km
Semi-major
42,164.5 km
B*
0.0000e+0
RAAN
79.2988°
Arg perigee
57.9382°
Mean anomaly
305.6869°
Rev number
6,186

§ Raw data

NSS-121 36032U 09058A   26263.07483272  .00000067  00000+0  00000+0 0  99992 36032   0.0286  79.2988 0003207  57.9382 305.6869  1.00272703 61861

JSON: /api/v1/satellites/36032 · /tle

For live sub-satellite position, see the globe view (requires WebGL).

§ Visibility from observer

Set your observer location to see the next 7 days of passes ≥ 10°. The values pass through the URL so the page stays shareable.

No JS? Fill the form by hand. The geolocation button needs JavaScript.